Weather History for Yuma MCAS, AZ

Change the Weather History Date:

Wednesday, January 29, 2014

  Actual Average Record
Temperature  
Mean Temperature 67 °F 60 °F  
Max Temperature 81 °F 71 °F 84 °F (1986)
Min Temperature 52 °F 48 °F 26 °F (1948)
Degree Days  
Heating Degree Days 0 6  
Month to date heating degree days 65 194  
Since 1 July heating degree days 306 498  
Cooling Degree Days 2 0  
Month to date cooling degree days 13 0  
Year to date cooling degree days 13 0  
Growing Degree Days 17 (Base 50)    
Moisture  
Dew Point 25 °F    
Average Humidity 24    
Maximum Humidity 38    
Minimum Humidity 10    
Precipitation  
Precipitation 0.00 in 0.01 in 1.82 in (1915)
Month to date precipitation T 0.35  
Year to date precipitation T 0.35  
Sea Level Pressure  
Sea Level Pressure 29.97 in    
Wind  
Wind Speed 3 mph (ENE)    
Max Wind Speed 13 mph    
Max Gust Speed 17 mph    
Visibility 10 miles    
Events      
T = Trace of Precipitation, MM = Missing Value Source: NWS Daily Summary

Daily Weather History Graph

Daily Weather History Graph

Search for Another Location

Airport:

Trip Planner

Search our weather history database for the weather conditions in past years. The results will help you decide how hot, cold, wet, or windy it might be!

Date:

Astronomy

Jan. 29, 2014 Rise Set
Actual Time 7:34 AM MST 6:08 PM MST
Civil Twilight 7:08 AM MST 6:34 PM MST
Nautical Twilight 6:39 AM MST 7:04 PM MST
Astronomical Twilight 6:10 AM MST 7:33 PM MST
Moon 6:14 AM MST (1/29) 5:12 PM MST (1/29)
Length of Visible Light 11h 25m
Length of Day
10h 33m
Waning Crescent, 2% of the Moon is Illuminated
Jan 29
Waning Crescent
Jan 30
New
Feb 6
First Quarter
Feb 14
Full
Feb 22
Last Quarter

Hourly Weather History & Observations

Time (MST) Temp. Dew Point Humidity Pressure Visibility Wind Dir Wind Speed Gust Speed Precip Events Conditions
12:57 AM 57.0 °F 28.0 °F 33% 30.03 in 10.0 mi Calm Calm - N/A   Clear
1:57 AM 57.0 °F 28.0 °F 33% 30.04 in 10.0 mi Calm Calm - N/A   Clear
2:57 AM 54.0 °F 28.9 °F 38% 30.02 in 10.0 mi Calm Calm - N/A   Clear
3:57 AM 54.0 °F 28.0 °F 37% 30.01 in 10.0 mi Calm Calm - N/A   Clear
4:57 AM 55.0 °F 27.0 °F 34% 30.00 in 10.0 mi Calm Calm - N/A   Clear
5:57 AM 55.9 °F 23.0 °F 28% 30.01 in 10.0 mi ENE 4.6 mph - N/A   Clear
6:57 AM 57.9 °F 19.9 °F 23% 30.03 in 10.0 mi NE 8.1 mph - N/A   Partly Cloudy
7:57 AM 54.0 °F 24.1 °F 31% 30.05 in 10.0 mi North 4.6 mph - N/A   Scattered Clouds
8:57 AM 61.0 °F 24.1 °F 24% 30.04 in 10.0 mi ENE 9.2 mph - N/A   Mostly Cloudy
9:57 AM 66.0 °F 26.1 °F 22% 30.06 in 10.0 mi NNE 4.6 mph - N/A   Mostly Cloudy
10:57 AM 70.0 °F 25.0 °F 18% 30.06 in 10.0 mi NNE 10.4 mph - N/A   Mostly Cloudy
11:57 AM 73.0 °F 23.0 °F 15% 30.05 in 10.0 mi NE 10.4 mph - N/A   Scattered Clouds
12:57 PM 75.9 °F 23.0 °F 14% 30.01 in 10.0 mi East 5.8 mph - N/A   Scattered Clouds
1:57 PM 77.0 °F 21.0 °F 12% 29.96 in 10.0 mi Calm Calm - N/A   Mostly Cloudy
2:57 PM 79.0 °F 19.0 °F 11% 29.94 in 10.0 mi Calm Calm - N/A   Mostly Cloudy
3:57 PM 80.1 °F 19.9 °F 11% 29.92 in 10.0 mi SE 4.6 mph - N/A   Mostly Cloudy
4:57 PM 79.0 °F 21.9 °F 12% 29.91 in 10.0 mi WSW 4.6 mph - N/A   Mostly Cloudy
5:57 PM 77.0 °F 26.1 °F 15% 29.90 in 10.0 mi South 4.6 mph - N/A   Mostly Cloudy
6:57 PM 70.0 °F 30.9 °F 24% 29.90 in 10.0 mi South 5.8 mph - N/A   Scattered Clouds
7:57 PM 68.0 °F 28.9 °F 23% 29.90 in 10.0 mi Calm Calm - N/A   Scattered Clouds
8:57 PM 64.9 °F 28.9 °F 26% 29.90 in 10.0 mi Calm Calm - N/A   Clear
9:57 PM 64.0 °F 27.0 °F 25% 29.89 in 10.0 mi Calm Calm - N/A   Clear
10:57 PM 64.0 °F 21.9 °F 20% 29.89 in 10.0 mi ESE 3.5 mph - N/A   Clear
11:57 PM 62.1 °F 24.1 °F 23% 29.88 in 10.0 mi Calm Calm - N/A   Clear